Flag for Austria Weather past 2 weeks in Kirchdorf an der Krems, Upper Austria, Austria

Now
63 °F

Passing clouds.


Feels Like: 63 °F
Forecast: 59 / 93 °F
Wind: No wind

Location: Kremsmuenster

Current Time: Jul 4, 2015 at 8:04:52 AM

Latest Report: Jul 4, 2015 at 7:00 AM


Visibility: 9 mi

Pressure: 30.22 "Hg

Humidity: 82%

Dew point: 58 °F

Location of Kirchdorf an der KremsLocation

Historic Weather in Kirchdorf an der Krems — Graph

°F

Kirchdorf an der Krems temperature yesterday

Maximum temperature yesterday: 89 °F (at 5:00 PM)
Minimum temperature yesterday: 62 °F (at 6:00 AM)
Average temperature yesterday: 76 °F

Past Weeks' High & Low Weather Summary

 TemperatureHumidityPressure
High89 °F (Jul 3, 5:00 PM)94% (Jun 22, 10:00 PM)30.28 "Hg (Jun 22, 10:00 PM)
Low49 °F (Jun 25, 6:00 AM)28% (Jun 25, 4:00 PM)29.72 "Hg (Jun 23, 2:00 AM)
Average64 °F69%30.11 "Hg
* Reported Jun 19 8:00 AM — Jul 4 6:00 AM, Kirchdorf an der Krems, Weather by CustomWeather, © 2015

Note: Actual official high and low records may vary slightly from our data, if they occured in-between our weather recording intervals... More about our weather records

Advertising

Kirchdorf an der Krems weather history for previous 24 hours

 ConditionsComfort  
Time TempWeatherWind HumidityBarometerVisibility
6:00 AM
Sat, Jul 4
64 °FMild.2 mph77%30.23 "HgN/A
5:00 AM64 °FMild.3 mph78%30.24 "HgN/A
4:00 AM66 °FMild.3 mph70%30.24 "HgN/A
3:00 AM66 °FMild.2 mph76%30.24 "HgN/A
2:00 AM67 °FMild.1 mph79%30.24 "HgN/A
1:00 AM70 °FMild.2 mph70%30.24 "HgN/A
12:00 AM70 °FMild.1 mph76%30.24 "HgN/A
10:00 PM
Fri, Jul 3
76 °FMild.3 mph60%30.23 "HgN/A
9:00 PM79 °FWarm.3 mph55%30.20 "HgN/A
8:00 PM83 °FOvercast.3 mph51%30.19 "Hg37 mi
7:00 PM85 °FWarm.3 mph43%30.18 "HgN/A
6:00 PM87 °FPleasantly warm.3 mph40%30.18 "HgN/A
5:00 PM89 °FPassing clouds.2 mph33%30.19 "Hg16 mi
4:00 PM89 °FHot.2 mph41%30.21 "HgN/A
3:00 PM87 °FWarm.1 mph45%30.22 "HgN/A
2:00 PM85 °FWarm.2 mph51%30.23 "HgN/A
1:00 PM83 °FWarm.2 mph59%30.23 "HgN/A
12:00 PM81 °FWarm.2 mph54%30.24 "HgN/A
11:00 AM78 °FSunny.2 mph58%30.25 "Hg9 mi
10:00 AM76 °FMild.1 mph63%30.26 "HgN/A
9:00 AM70 °FMild.1 mph73%30.27 "HgN/A
8:00 AMN/APassing clouds.14 mphN/AN/A10 mi
Weather by CustomWeather, © 2015

See weather overviewHow to use our weather pages